Madawaska, ME

4:18 PM EDT on October 01, 2016 (GMT -0400)
Northern Aroostook Regional

Weather History for KFVE - September, 2013

Change the Weather History Date:

Friday, September 27, 2013

  Actual Average Record
Temperature  
Mean Temperature 57 °F 49 °F  
Max Temperature 68 °F 58 °F 73 °F (2004)
Min Temperature 45 °F 40 °F 28 °F (1997)
Degree Days  
Heating Degree Days 8    
Month to date heating degree days 273  
Since 1 July heating degree days 436  
Cooling Degree Days 0    
Month to date cooling degree days 4  
Year to date cooling degree days 139  
Growing Degree Days 6 (Base 50)    
Moisture  
Dew Point 46 °F    
Average Humidity 73    
Maximum Humidity 97    
Minimum Humidity 45    
Precipitation  
Precipitation 0.00 in 0.10 in 0.96 in (2008)
Month to date precipitation 3.90 3.21  
Year to date precipitation 28.41 25.27  
Sea Level Pressure  
Sea Level Pressure 30.21 in    
Wind  
Wind Speed 8 mph (NNW)    
Max Wind Speed 18 mph    
Max Gust Speed 22 mph    
Visibility 10 miles    
Events      
T = Trace of Precipitation, MM = Missing Value Source: NWS Daily Summary

Daily Weather History Graph

Daily Weather History Graph

Search for Another Location

Airport or City:

Trip Planner

Search our weather history database for the weather conditions in past years. The results will help you decide how hot, cold, wet, or windy it might be!

Date:

Astronomy

Sep. 27, 2013 Rise Set
Actual Time 6:27 AM EDT 6:20 PM EDT
Civil Twilight 5:56 AM EDT 6:50 PM EDT
Nautical Twilight 5:20 AM EDT 7:26 PM EDT
Astronomical Twilight 4:44 AM EDT 8:02 PM EDT
Moon 11:51 PM EDT (9/27) 2:17 PM EDT (9/27)
Length of Visible Light 12h 54m
Length of Day
11h 53m
Last Quarter, 45% of the Moon is Illuminated
Sep 27
Last Quarter
Oct 4
New
Oct 11
First Quarter
Oct 18
Full
Oct 26
Last Quarter

Hourly Weather History & Observations

Time (EDT) Temp. Windchill Dew Point Humidity Pressure Visibility Wind Dir Wind Speed Gust Speed Precip Events Conditions
12:53 AM 51.1 °F - 46.9 °F 86% 30.16 in 10.0 mi NW 5.8 mph - N/A   Overcast
1:53 AM 51.1 °F - 48.0 °F 89% 30.16 in 10.0 mi NW 5.8 mph - N/A   Overcast
2:53 AM 50.0 °F - 46.9 °F 89% 30.16 in 10.0 mi NNW 5.8 mph - N/A   Overcast
3:53 AM 46.9 °F - 46.0 °F 97% 30.17 in 10.0 mi NNW 6.9 mph - N/A   Clear
4:53 AM 46.9 °F - 45.0 °F 93% 30.19 in 10.0 mi NNW 9.2 mph - N/A   Clear
5:53 AM 46.9 °F - 45.0 °F 93% 30.20 in 10.0 mi NNW 8.1 mph - N/A   Clear
6:53 AM 45.0 °F 40.6 °F 44.1 °F 97% 30.22 in 9.0 mi NNW 8.1 mph - N/A   Clear
7:53 AM 50.0 °F - 46.9 °F 89% 30.22 in 10.0 mi NW 6.9 mph - N/A   Clear
8:53 AM 55.0 °F - 48.0 °F 77% 30.22 in 10.0 mi NW 8.1 mph - N/A   Clear
9:53 AM 59.0 °F - 48.9 °F 69% 30.23 in 10.0 mi North 10.4 mph 16.1 mph N/A   Clear
10:53 AM 63.0 °F - 48.0 °F 58% 30.22 in 10.0 mi NNW 12.7 mph - N/A   Clear
11:53 AM 64.9 °F - 48.9 °F 56% 30.21 in 10.0 mi NNW 11.5 mph - N/A   Clear
12:53 PM 66.9 °F - 46.9 °F 49% 30.19 in 10.0 mi NNW 15.0 mph 21.9 mph N/A   Scattered Clouds
1:53 PM 66.0 °F - 46.0 °F 48% 30.19 in 10.0 mi NNW 13.8 mph 21.9 mph N/A   Scattered Clouds
2:53 PM 66.9 °F - 45.0 °F 45% 30.19 in 10.0 mi NNW 13.8 mph 20.7 mph N/A   Scattered Clouds
3:53 PM 66.9 °F - 45.0 °F 45% 30.19 in 10.0 mi NNW 16.1 mph 19.6 mph N/A   Clear
4:53 PM 64.9 °F - 44.1 °F 47% 30.19 in 10.0 mi NNW 9.2 mph - N/A   Clear
5:53 PM 62.1 °F - 46.0 °F 56% 30.20 in 10.0 mi NNW 8.1 mph - N/A   Clear
6:53 PM 57.0 °F - 46.0 °F 67% 30.22 in 10.0 mi NNW 6.9 mph - N/A   Clear
7:53 PM 55.0 °F - 46.0 °F 72% 30.23 in 10.0 mi North 5.8 mph - N/A   Clear
8:53 PM 55.0 °F - 46.0 °F 72% 30.24 in 10.0 mi NNW 4.6 mph - N/A   Clear
9:53 PM 54.0 °F - 46.0 °F 75% 30.24 in 10.0 mi North 3.5 mph - N/A   Clear
10:53 PM 52.0 °F - 46.0 °F 80% 30.25 in 10.0 mi NNW 4.6 mph - N/A   Clear
11:53 PM 48.0 °F - 46.0 °F 93% 30.25 in 10.0 mi WNW 3.5 mph - N/A   Clear